Regional Weather Roundup
Issued by NWS Upton, NY

Current Version | Previous Version | Graphics & Text | Print | Product List | Glossary On
Versions: 1 2 3 4 5 6 7 8 9 10 11 12 13 14 15 16 17 18 19 20 21 22 23 24 25 26 27
000
ASUS41 KOKX 232308
RWROKX

REGIONAL WEATHER ROUNDUP
NATIONAL WEATHER SERVICE NEW YORK NY
600 PM EST THU FEB 23 2017

NOTE: "FAIR" INDICATES FEW OR NO CLOUDS BELOW 12,000 FEET WITH NO
SIGNIFICANT WEATHER AND/OR OBSTRUCTIONS TO VISIBILITY.

NYZ071-072-176-178-NJZ106-104-240000-
NEW YORK CITY METRO AREA

CITY           SKY/WX    TMP DP  RH WIND       PRES   REMARKS
Central Park     N/A     61  51  70 S5        29.86R
Wall St Helipt NOT AVBL
LaGuardia APRT   N/A     61  49  64 S6        29.84R
Kennedy INTL     N/A     50  48  93 SW8       29.86R
Breezy Point     N/A     45 N/A N/A S8          N/A
Newark/Liberty   N/A     57  48  72 N6        29.83R
Teterboro        N/A     65  52  62 S8        29.83R
$$

NYZ177-179-078>081-240000-
LONG ISLAND NEW YORK

CITY           SKY/WX    TMP DP  RH WIND       PRES   REMARKS
Jones Beach      N/A     46 N/A N/A SW8G16      N/A
Matinecock PT  NOT AVBL
Farmingdale      N/A     53  48  83 SW7       29.86R
MacArthur/ISP    N/A     50  47  89 SW8       29.86R
Shirley          N/A     47  46  97 SW6       29.88R
Westhampton      N/A     45  44  97 SW5       29.89R
Southampton      N/A     45  43  93 SW2       29.84R
Bridgehampton  NOT AVBL
East Hampton     N/A     46  45  96 SW9       29.87R
Montauk          N/A     48  46  93 SW8       29.88R
$$

NYZ052-065-067-240000-
HUDSON VALLEY

CITY           SKY/WX    TMP DP  RH WIND       PRES   REMARKS
White Plains     N/A     56  49  77 CALM      29.85R
Newburgh       PTCLDY    64  54  68 SW9       29.82R
Montgomery       N/A     63  52  67 S8        29.80R
Poughkeepsie   MOCLDY    65  50  58 S6        29.80R
Albany           N/A     64  47  53 S7        29.75R
$$

NJZ001-105-106-008-010-013-015-019>022-104-240000-
NEW JERSEY

CITY           SKY/WX    TMP DP  RH WIND       PRES   REMARKS
Newark/Liberty   N/A     57  48  72 N6        29.83R
Teterboro        N/A     65  52  62 S8        29.83R
Caldwell         N/A     66  52  60 CALM      29.84R
Somerville       N/A     64  52  64 CALM      29.81R
Linden         NOT AVBL
Sussex           N/A     63  51  65 SW3       29.83R
Andover          N/A     58  49  72 CALM      29.83R
Trenton          N/A     66  53  63 SW6       29.83R
Millville        N/A     61  51  70 S3        29.87R
Atlantic City    N/A     59  49  69 S12       29.88R
Wrightstown      N/A     67  53  60 S10       29.81R
Toms River       N/A     62  52  69 S9        29.87R
Belmar           N/A     62  52  69 S7        29.85R
$$

PAZ047>061-062-071-240000-
EASTERN PENNSYLVANIA

CITY           SKY/WX    TMP DP  RH WIND       PRES   REMARKS
Philadelphia     N/A     67  52  58 S8        29.84R
Allentown      MOCLDY    68  51  54 CALM      29.82R
Scranton       MOCLDY    67  51  56 S3        29.81R
$$

CTZ002-004>006-009-010-012-RIZ004-006-007-MAZ004-011-015-240000-
SOUTHERN NEW ENGLAND
 IN CT

CITY           SKY/WX    TMP DP  RH WIND       PRES   REMARKS
Bradley INTL     N/A     55  49  80 S10       29.81R
Hartford         N/A     54  49  83 S7        29.83R
Danbury          N/A     58  49  72 S7        29.85R
Wtrbury/Oxford PTCLDY    55  46  71 SW7       29.85R
Bridgeport       N/A     50  44  80 CALM      29.85R
Meriden          N/A     54  47  77 S7        29.85R
New Haven        N/A     46  43  89 S3        29.85R
Chester          N/A     52  50  93 SW8       29.85R
Groton         CLOUDY    44  44 100 CALM      29.86R FOG
Wilimantic       N/A     55  50  83 S5        29.84R

 IN RI

CITY           SKY/WX    TMP DP  RH WIND       PRES   REMARKS
Providence       N/A     49  44  83 S8        29.85R
Block Island   MOCLDY    46  45  96 SW16      29.87R
Westerly       FOG       46  42  86 SW7       29.87R VSB 1/2
 IN MA

CITY           SKY/WX    TMP DP  RH WIND       PRES   REMARKS
Boston           N/A     58  51  78 SW20      29.77R
Worcester        N/A     55  46  71 SW15      29.79R
Westfield        N/A     54  48  80 S12       29.79R
Provincetown     N/A     46  44  93 SW15      29.83R
Nantucket        N/A     45  43  93 SW14      29.88R
$$

ANZ330-335-338-340-345-350-353-355-240000-
COASTAL MARINE OBSERVATIONS


STATION/POSITION TIME  SKY/WX   TEMP    WIND        PRES    VSBY  WAVE
                                AIR SEA DIR/SP/G                  HT/PER
                 (UTC)          (F)     (DEG/KT/KT) (MB)    (MI)  (FT/S)
NY HARB ENTRANCE 2150            49 44  190/ 16/ 17 1009.7          3/11
20 S FIRE ISLAND 2250            48 44  200/ 17/ 19 1010.8          3/11
GREAT SOUTH BAY  NOT AVBL
23 SSW MONTAUK P 2150            49 46              1011.1          4/11
15 E BARNEGAT LI 2230               43                N/A           5/10
HUDSON CANYON    2150               49              1012.1          4/11
KINGS POINT      2224            54 40              1010.0
EXECUTION ROCKS  NOT AVBL
CENTRAL LI SOUND NOT AVBL
EASTERN LI SOUND NOT AVBL
ROBBINS REEF     2224            57     150/  4/  5 1010.1
$$


>>>>>>>>>>>>>>>>>>>>>>>>>>>> KEY <<<<<<<<<<<<<<<<<<<<<<<<<<<
>                                                          <
>     SKY/WX - Sky Condition/Present Weather               <
>     TMP    - Temperature in Fahrenheit                   <
>     DP     - Dew Point in Fahrenheit                     <
>     RH     - Relative Humidity in Percent                <
>     WIND   - Direction (from) and Speed in MPH           <
>     PRES   - Mean Sea Level Pressure (inches of Hg)      <
>     WCI    - Wind Chill Index                            <
>     VSB    - VISIBILITY IN MILES                         <
>     HX     - HEAT INDEX                                  <
>     TC     - TEMPERATURE IN CELSIUS                      <
>     VRB    - VARIABLE WIND DIRECTION                     <
>                                                          <
>>>>>>>>>>>>>>>>>>>>>>>>>>>> KEY <<<<<<<<<<<<<<<<<<<<<<<<<<<




USA.gov is the U.S. government's official web portal to all federal, state and local government web resources and services.